Regional Weather Roundup
Issued by NWS

Home | Current Version | Previous Version | Graphics & Text | Print | Product List | Glossary On
Versions: 1 2 3 4 5 6 7 8 9 10 11 12 13 14 15 16 17 18 19 20 21 22 23 24 25 26 27 28 29 30 31 32 33 34 35 36 37 38 39 40 41 42 43 44 45 46 47 48 49 50
826
ASUS44 KLIX 312307
RWRLA
LOUISIANA WEATHER ROUNDUP
NATIONAL WEATHER SERVICE NEW ORLEANS LA
600 PM CDT TUE MAR 31 2015

NOTE: "FAIR" INDICATES FEW OR NO CLOUDS BELOW 12,000 FEET WITH NO
      SIGNIFICANT WEATHER AND/OR OBSTRUCTIONS TO VISIBILITY.
      SKY/WX - SKY CONDITION AND SIGNIFICANT WEATHER.
      TMP - AIR TEMPERATURE.    DP   - DEWPOINT TEMPERATURE.
      RH  - RELATIVE HUMIDITY.  PRES - PRESSURE.
      HX  - HEAT INDEX.         WCI  - WIND CHILL INDEX.

*  THESE STATIONS ARE NOT NWS OR FAA STATIONS AND ARE NOT UNDER
   NWS QUALITY CONTROL.

LAZ040-048-061>063-065-066-069-010000-
SOUTHEAST LOUISIANA

CITY           SKY/WX    TMP DP  RH WIND       PRES   REMARKS
N.O. AUDUBON     N/A     78  67  68 MISG        N/A
N.O. INTL ARPT PTSUNNY   79  60  52 SW18      30.01S
N.O. LAKEFRONT MOSUNNY   79  62  56 W15       30.01S
SLIDELL        MOSUNNY   80  60  50 SW9G17    30.00R
BATON ROUGE    MOSUNNY   77  60  55 SW16      30.00S
BOOTHVILLE     MOSUNNY   76  67  73 SW12      30.04F
BELLE CHASSE   MOSUNNY   76  63  64 SW12      30.01S
BOGALUSA*        N/A     82  56  41 SW14      29.99F
GALLIANO*      PTCLDY    79  61  54 SW15G25   30.04S
NEW ROADS*     FAIR      77  58  51 SW12G17   30.00R
GONZALES*      FAIR      78  60  52 SW9G16    30.01S
HAMMOND*       SUNNY     81  55  41 SW10      30.01S
HOUMA*         MOSUNNY   75  64  69 SW10      30.04S
PORT FOURCHON* PTCLDY    77  66  69 W10G17    30.08S

$$

LAZ041-044-053-054-010000-
SOUTHWEST LOUISIANA

CITY           SKY/WX    TMP DP  RH WIND       PRES   REMARKS
LAKE CHARLES   MOSUNNY   75  63  66 S12G18    30.01S
LAFAYETTE      SUNNY     77  57  50 SW17G23   30.01F
PATTERSON      MOSUNNY   75  63  64 SW15G21   30.05S
SALT POINT       N/A     72  68  87 SW3       30.03F
NEW IBERIA     LGT RAIN  78  56  46 SW17      30.03F
CHENAULT AIRPK NOT AVBL

$$

LAZ027-028-010000-
CENTRAL LOUISIANA

CITY           SKY/WX    TMP DP  RH WIND       PRES   REMARKS
FORT POLK      MOSUNNY   80  60  51 S12       29.96F
ALEXANDRIA INT SUNNY     81  59  47 SW10      29.94F
ALEXANDRIA     MOSUNNY   82  57  42 SW12      29.96S

$$

LAZ001-002-010000-
NORTHWEST LOUISIANA

CITY           SKY/WX    TMP DP  RH WIND       PRES   REMARKS
SHREVEPORT     MOSUNNY   81  61  50 S13       29.92F
BARKSDALE AFB  MOSUNNY   81  61  50 SW7       29.92F
DTN SHREVEPORT PTSUNNY   78  62  57 SW6       29.92F

$$

LAZ014-016-010000-
NORTHEAST LOUISIANA

CITY           SKY/WX    TMP DP  RH WIND       PRES   REMARKS
MONROE         MOSUNNY   80  59  48 W13       29.93S
TALLULAH       PTSUNNY   81  55  40 SW8       29.95S

$$




USA.gov is the U.S. government's official web portal to all federal, state and local government web resources and services.